Weather History for HEAX - July, 2012

Change the Weather History Date:

Saturday, July 7, 2012

  Actual Average Record
Temperature  
Mean Temperature 82 °F -  
Max Temperature 90 °F 84 °F 90 °F (2012)
Min Temperature 75 °F 73 °F 71 °F (2000)
Cooling Degree Days 18    
Growing Degree Days 32 (Base 50)    
Moisture  
Dew Point 70 °F    
Average Humidity 67    
Maximum Humidity 78    
Minimum Humidity 52    
Precipitation  
Precipitation 0.00 in 0.00 in - ()
Sea Level Pressure  
Sea Level Pressure 29.75 in    
Wind  
Wind Speed 7 mph ()    
Max Wind Speed 16 mph    
Max Gust Speed -    
Visibility 6.1 miles    
Events      
Averages and records for this station are not official NWS values.
T = Trace of Precipitation, MM = Missing Value Source: Averaged Metar Reports

Daily Weather History Graph

Daily Weather History Graph

Search for Another Location

Airport or City:

Trip Planner

Search our weather history database for the weather conditions in past years. The results will help you decide how hot, cold, wet, or windy it might be!

Date:

Astronomy

Jul. 07, 2012 Rise Set
Actual Time 5:02 AM EET 7:07 PM EET
Civil Twilight 4:34 AM EET 7:35 PM EET
Nautical Twilight 4:01 AM EET 8:08 PM EET
Astronomical Twilight 3:25 AM EET 8:44 PM EET
Moon 9:37 PM EET (7/7) 8:48 AM EET (7/7)
Length of Visible Light 15h 00m
Length of Day
14h 05m
Waning Gibbous, 84% of the Moon is Illuminated
Jul 7
Waning Gibbous
Jul 11
Last Quarter
Jul 19
New
Jul 26
First Quarter
Aug 2
Full

Hourly Weather History & Observations

Time (EET) Temp. Heat Index Dew Point Humidity Pressure Visibility Wind Dir Wind Speed Gust Speed Precip Events Conditions
12:00 AM 77.0 °F - 69.8 °F 78% 29.80 in 6.2 mi North 3.5 mph - N/A   Partly Cloudy
1:00 AM 77.0 °F - 69.8 °F 78% 29.80 in 6.2 mi North 4.6 mph - N/A   Scattered Clouds
2:00 AM 77 °F - 69 °F 70% 29.80 in 6 mi NW 4.6 mph - -  
2:00 AM 77.0 °F - 69.8 °F 78% 29.80 in - NW 4.6 mph - N/A   Clear
3:00 AM 77.0 °F - 68.0 °F 74% 29.77 in - NNW 4.6 mph - N/A   Clear
4:00 AM 75.2 °F - 68.0 °F 78% 29.77 in - NW 3.5 mph - N/A   Clear
5:00 AM 77.0 °F - 68.0 °F 74% 29.80 in - WNW 3.5 mph - N/A   Clear
6:00 AM 78.8 °F - 68.0 °F 69% 29.77 in - West 4.6 mph - N/A   Clear
7:00 AM 80.6 °F 83.9 °F 69.8 °F 70% 29.77 in - WNW 5.8 mph - N/A   Clear
8:00 AM 83 °F - 70 °F 57% 29.79 in 6 mi WNW 9.2 mph - -  
8:00 AM 82.4 °F 86.3 °F 69.8 °F 66% 29.77 in - WNW 9.2 mph - N/A   Clear
9:00 AM 84.2 °F 88.4 °F 69.8 °F 62% 29.74 in - WNW 8.1 mph - N/A   Clear
10:00 AM 87.8 °F 92.6 °F 69.8 °F 55% 29.77 in - WNW 6.9 mph - N/A   Clear
11:00 AM 87.8 °F 93.8 °F 71.6 °F 58% 29.77 in - WNW 11.5 mph - N/A   Clear
12:00 PM 89.6 °F 94.7 °F 69.8 °F 52% 29.74 in - WNW 12.7 mph - N/A   Clear
1:00 PM 89.6 °F 94.7 °F 69.8 °F 52% 29.74 in - WNW 13.8 mph - N/A   Clear
2:00 PM 88 °F - 73 °F 54% 29.75 in 6 mi WNW 13.8 mph - -   Partly Cloudy
2:00 PM 87.8 °F 95.6 °F 73.4 °F 62% 29.74 in 6.2 mi WNW 13.8 mph - N/A   Scattered Clouds
3:00 PM 87.8 °F 95.6 °F 73.4 °F 62% 29.74 in 6.2 mi NW 16.1 mph - N/A   Scattered Clouds
4:00 PM 86.0 °F 93.4 °F 73.4 °F 66% 29.71 in 6.2 mi NW 15.0 mph - N/A   Scattered Clouds
5:00 PM 86.0 °F 95.1 °F 75.2 °F 70% 29.71 in 6.2 mi WNW 12.7 mph - N/A   Scattered Clouds
6:00 PM 84.2 °F 90.9 °F 73.4 °F 70% 29.71 in - NW 15.0 mph - N/A   Clear
7:00 PM 80.6 °F 84.6 °F 71.6 °F 74% 29.71 in - NW 11.5 mph - N/A   Clear
8:00 PM 80 °F - 69 °F 63% 29.73 in 6 mi NW 11.5 mph - -  
8:00 PM 80.6 °F 83.9 °F 69.8 °F 70% 29.71 in - NW 11.5 mph - N/A   Clear
9:00 PM 80.6 °F 83.9 °F 69.8 °F 70% 29.74 in - NW 15.0 mph - N/A   Clear
10:00 PM 80.6 °F 83.2 °F 68.0 °F 65% 29.74 in - NW 13.8 mph - N/A   Clear
11:00 PM 78.8 °F - 68.0 °F 69% 29.74 in - NW 11.5 mph - N/A   Clear